Detroit Metro, MI

9:07 AM EST on January 16, 2018 (GMT -0500)
Detroit Metro Wayne County

Weather History for KDTW - June, 2013

Change the Weather History Date:

Monday, June 10, 2013

  Actual Average Record
Temperature  
Mean Temperature 67 °F 68 °F  
Max Temperature 71 °F 78 °F 95 °F (1911)
Min Temperature 62 °F 58 °F 38 °F (1980)
Degree Days  
Heating Degree Days 0 1  
Month to date heating degree days 21 22  
Since 1 June heating degree days 21 22  
Since 1 July heating degree days 5927 6124  
Cooling Degree Days 2 4  
Month to date cooling degree days 13 36  
Year to date cooling degree days 116 84  
Since 1 June cooling degree days 13 36  
Growing Degree Days 16 (Base 50)    
Moisture  
Dew Point 63 °F    
Average Humidity 87    
Maximum Humidity 93    
Minimum Humidity 81    
Precipitation  
Precipitation 0.51 in 0.12 in 1.65 in (1920)
Month to date precipitation 0.62 1.20  
Year to date precipitation 15.47 13.74  
Snow  
Snow 0.00 in 0.00 in 0.00 in ()
Month to date snowfall 0.0 0.0  
Since 1 June snowfall 0.0 0.0  
Since 1 July snowfall 47.7 42.5  
Snow Depth 0.00 in    
Sea Level Pressure  
Sea Level Pressure 29.82 in    
Wind  
Wind Speed 4 mph (ENE)    
Max Wind Speed 10 mph    
Max Gust Speed 13 mph    
Visibility 5 miles    
Events Rain , Thunderstorm    
T = Trace of Precipitation, MM = Missing Value Source: NWS Daily Summary

Daily Weather History Graph

Daily Weather History Graph

Search for Another Location

Airport or City:

Trip Planner

Search our weather history database for the weather conditions in past years. The results will help you decide how hot, cold, wet, or windy it might be!

Date:

Astronomy

Jun. 10, 2013 Rise Set
Actual Time 5:56 AM EDT 9:09 PM EDT
Civil Twilight 5:22 AM EDT 9:43 PM EDT
Nautical Twilight 4:38 AM EDT 10:28 PM EDT
Astronomical Twilight 3:44 AM EDT 11:21 PM EDT
Moon 7:46 AM EDT (6/10) 10:33 PM EDT (6/10)
Length of Visible Light 16h 21m
Length of Day
15h 12m
Waxing Crescent, 4% of the Moon is Illuminated
Jun 10
Waxing Crescent
Jun 16
First Quarter
Jun 23
Full
Jun 30
Last Quarter
Jul 8
New

Hourly Weather History & Observations

Time (EDT) Temp. Dew Point Humidity Pressure Visibility Wind Dir Wind Speed Gust Speed Precip Events Conditions
12:53 AM 64.0 °F 59.0 °F 84% 29.95 in 10.0 mi ENE 5.8 mph - 0.02 in Rain , Thunderstorm Light Thunderstorms and Rain
1:53 AM 63.0 °F 60.1 °F 90% 29.94 in 10.0 mi North 5.8 mph - 0.07 in Rain , Thunderstorm Light Thunderstorms and Rain
1:56 AM 62.6 °F 60.8 °F 94% 29.95 in 10.0 mi North 5.8 mph - 0.00 in   Overcast
2:53 AM 63.0 °F 60.1 °F 90% 29.93 in 6.0 mi NNE 5.8 mph - 0.00 in   Overcast
3:53 AM 62.1 °F 60.1 °F 93% 29.91 in 5.0 mi NNE 6.9 mph - 0.01 in Rain Light Rain
4:53 AM 62.1 °F 59.0 °F 90% 29.89 in 5.0 mi North 3.5 mph - 0.08 in Rain Light Rain
5:53 AM 62.1 °F 59.0 °F 90% 29.87 in 6.0 mi NNE 6.9 mph - 0.02 in Rain Light Rain
6:12 AM 62.6 °F 59.0 °F 88% 29.88 in 3.0 mi NE 4.6 mph - 0.00 in Rain Light Rain
6:24 AM 62.6 °F 59.0 °F 88% 29.88 in 2.5 mi NNE 3.5 mph - 0.00 in Rain Rain
6:26 AM 62.6 °F 59.0 °F 88% 29.88 in 1.5 mi Calm Calm - 0.00 in Rain Heavy Rain
6:32 AM 62.6 °F 60.8 °F 94% 29.87 in 2.0 mi North 4.6 mph - 0.03 in Rain Rain
6:53 AM 62.1 °F 60.1 °F 93% 29.86 in 2.0 mi NE 5.8 mph - 0.06 in Rain Light Rain
7:00 AM 62.6 °F 60.8 °F 94% 29.87 in 2.0 mi NE 6.9 mph - 0.00 in Rain Light Rain
7:02 AM 62.6 °F 60.8 °F 94% 29.87 in 3.0 mi NE 4.6 mph - 0.00 in Rain Light Rain
7:53 AM 63.0 °F 61.0 °F 93% 29.85 in 3.0 mi NE 5.8 mph - 0.00 in Rain Light Rain
8:53 AM 64.9 °F 62.1 °F 90% 29.84 in 3.0 mi ENE 4.6 mph - 0.01 in Rain Light Rain
9:30 AM 66.2 °F 62.6 °F 88% 29.84 in 3.0 mi East 6.9 mph - 0.02 in Rain Light Rain
9:53 AM 66.0 °F 64.0 °F 93% 29.83 in 3.0 mi Variable 3.5 mph - 0.03 in Rain Light Rain
10:53 AM 68.0 °F 64.9 °F 90% 29.81 in 3.0 mi ESE 6.9 mph - 0.00 in Rain Light Rain
11:53 AM 68.0 °F 66.0 °F 93% 29.81 in 3.0 mi ESE 6.9 mph - 0.01 in Rain Light Rain
12:38 PM 69.8 °F 66.2 °F 88% 29.81 in 3.0 mi SE 5.8 mph - 0.02 in Rain Light Rain
12:53 PM 69.1 °F 66.0 °F 90% 29.80 in 3.0 mi SSE 6.9 mph - 0.02 in Rain Light Rain
1:02 PM 69.8 °F 66.2 °F 88% 29.80 in 3.0 mi SE 4.6 mph - 0.00 in   Overcast
1:53 PM 70.0 °F 66.0 °F 87% 29.79 in 6.0 mi South 3.5 mph - 0.01 in Rain Light Rain
2:53 PM 68.0 °F 63.0 °F 84% 29.78 in 4.0 mi SW 5.8 mph - 0.01 in Rain Rain
3:00 PM 68.0 °F 62.6 °F 83% 29.79 in 3.0 mi South 6.9 mph - 0.00 in Rain Heavy Rain
3:53 PM 68.0 °F 64.0 °F 87% 29.78 in 10.0 mi Calm Calm - 0.07 in Rain Light Rain
4:53 PM 68.0 °F 64.9 °F 90% 29.77 in 9.0 mi SE 3.5 mph - 0.01 in Rain Light Rain
5:53 PM 68.0 °F 64.9 °F 90% 29.76 in 10.0 mi ESE 3.5 mph - 0.02 in Rain Light Rain
6:53 PM 69.1 °F 66.0 °F 90% 29.75 in 10.0 mi Calm Calm - 0.03 in Rain Light Rain
7:20 PM 69.8 °F 64.4 °F 83% 29.76 in 10.0 mi Calm Calm - 0.02 in Rain Light Rain
7:35 PM 68.0 °F 64.4 °F 88% 29.76 in 10.0 mi Calm Calm - 0.02 in   Overcast
7:43 PM 68.0 °F 66.2 °F 94% 29.76 in 10.0 mi Calm Calm - 0.02 in   Mostly Cloudy
7:53 PM 68.0 °F 66.0 °F 93% 29.76 in 10.0 mi East 3.5 mph - 0.02 in   Mostly Cloudy
8:53 PM 68.0 °F 64.9 °F 90% 29.76 in 7.0 mi ESE 4.6 mph - 0.01 in   Overcast
9:53 PM 66.9 °F 64.9 °F 93% 29.76 in 7.0 mi ESE 3.5 mph - 0.02 in   Overcast
10:53 PM 66.0 °F 64.0 °F 93% 29.76 in 4.0 mi Calm Calm - N/A   Mostly Cloudy
11:29 PM 66.2 °F 64.4 °F 94% 29.77 in 2.0 mi Calm Calm - N/A   Scattered Clouds
11:38 PM 64.4 °F 62.6 °F 94% 29.77 in 1.5 mi Calm Calm - N/A   Mostly Cloudy
11:53 PM 64.9 °F 63.0 °F 93% 29.77 in 1.5 mi Calm Calm - N/A   Mostly Cloudy